Regional Weather Roundup
Issued by NWS

Current Version | Previous Version | Text Only | Print | Product List | Glossary On
Versions: 1 2 3 4 5 6 7 8 9 10 11 12 13 14 15 16 17 18 19 20 21 22 23 24 25 26 27 28 29 30 31 32 33 34 35 36 37 38 39 40 41 42 43 44 45 46 47 48 49 50
000
ASUS44 KBMX 191510
RWRAL

ALABAMA REGIONAL WEATHER ROUNDUP
NATIONAL WEATHER SERVICE BIRMINGHAM AL
1000 AM CDT SUN APR 19 2015

NOTE: "FAIR" INDICATES FEW OR NO CLOUDS BELOW 12,000 FEET
WITH NO SIGNIFICANT WEATHER AND/OR OBSTRUCTIONS TO VISIBILITY.

THE REMARK "TC" DENOTES TEMPERATURE IN DEGREES CELSIUS.

ALZ001>011-014-016>018-020-191600-
NORTH ALABAMA

CITY           SKY/WX    TMP DP  RH WIND       PRES   REMARKS
MUSCLE SHOALS  PTSUNNY   72  64  76 SW12      29.67F
HUNTSVILLE     CLOUDY    70  63  78 S12       29.71S
DECATUR        PTSUNNY   69  64  84 SW12      29.70S
HALEYVILLE       N/A     65  65 100 SW6       29.73F
GADSDEN        CLOUDY    64  61  88 SW5       29.77R
$$

ALZ012-013-022-023-030>036-040>044-191600-
WEST CENTRAL ALABAMA

CITY           SKY/WX    TMP DP  RH WIND       PRES   REMARKS
TUSCALOOSA     CLOUDY    70  67  90 S9        29.73F
$$

ALZ015-024>027-033>036-040>044-191600-
CENTRAL ALABAMA

CITY           SKY/WX    TMP DP  RH WIND       PRES   REMARKS
BIRMINGHAM     CLOUDY    67  65  93 SW8       29.77F
MONTGOMERY     CLOUDY    72  68  88 SE5       29.81R
SHELBY CO ARPT CLOUDY    68  65  90 S6        29.78R
MAXWELL AFB    CLOUDY    71  69  94 S8        29.81R
GREENVILLE     CLOUDY    70  67  90 S6        29.82R
$$

ALZ019-021-028-029-037-038-045>048-191600-
EAST CENTRAL ALABAMA

CITY           SKY/WX    TMP DP  RH WIND       PRES   REMARKS
ANNISTON       CLOUDY    66  63  90 CALM      29.79S
ALEXANDER CITY LGT RAIN  74  69  83 SW7       29.81R
AUBURN         CLOUDY    66  64  94 S12G18    29.86R
$$

ALZ051>064-191600-
SOUTHWEST ALABAMA

CITY           SKY/WX    TMP DP  RH WIND       PRES   REMARKS
MOBILE         CLOUDY    72  70  93 S5        29.80F
BROOKLEY FIELD CLOUDY    72  70  93 CALM      29.81F
EVERGREEN      CLOUDY    70  69  97 S7        29.82S
$$

ALZ049-050-065>069-191600-
SOUTHEAST ALABAMA

CITY           SKY/WX    TMP DP  RH WIND       PRES   REMARKS
DOTHAN         HVY RAIN  69  67  93 SW24G33   29.93R FOG
OZARK          RAIN      68  63  83 S10G21    29.88S
TROY           LGT RAIN  71  68  90 SW7       29.85R
EUFAULA        TSTM      69  65  86 S8G16     29.86R FOG
$$


USA.gov is the U.S. government's official web portal to all federal, state and local government web resources and services.